Location: Austin
(30.3000°N, 97.7500°W)
Time: 17:29:39
(UTC-05:00)

Cosmos 2082 Rocket - Visible Passes

Search period start: 14 March 2026 00:00
Search period end: 24 March 2026 00:00
Orbit: 831 x 854 km, 71.0° (Epoch: 14 March)

Date Brightness Start Highest point End Pass type
(mag) Time Alt. Az. Time Alt. Az. Time Alt. Az.
14 Mar 4.5 21:18:59 10° NW 21:23:18 22° W 21:27:35 10° SSW visible
15 Mar 4.5 21:03:58 10° NW 21:08:25 24° W 21:12:50 10° SSW visible
16 Mar 4.5 20:48:57 10° NW 20:53:32 25° WSW 20:58:05 10° SSW visible
17 Mar 4.5 20:33:57 10° NW 20:38:39 27° WSW 20:43:19 10° SSW visible
18 Mar 4.5 20:18:58 10° NW 20:23:46 28° WSW 20:28:31 10° SSW visible
19 Mar 4.4 20:03:59 10° NW 20:08:52 30° WSW 20:13:44 10° SSW visible
22 Mar 5.4 06:54:19 10° SE 06:56:57 13° E 06:59:35 10° ENE visible
23 Mar 5.4 06:39:47 10° ESE 06:42:04 13° E 06:44:23 10° ENE visible
